Starlink 33733

operational
NORAD ID: 63435 Int'l Des: 2025-069 Owner: SPXS Country: US Constellation: starlink
LEOCIRCULAR

关于 Starlink 33733

正在加载描述...

实时位置

正在加载3D地球...

即将过境

高度历史

Altitude vs Time

uPlot chart will show altitude changes over time

两行轨道根数

1 63435U 25069C 25354.80023747 .00013764 00000-0 47597-3 0 9999
2 63435 53.1560 149.1096 0000816 98.3600 261.7493 15.30199716 41328
Epoch: Dec 20, 2025 • Age: 6 hours

当前状态

高度 491.8 km
速度 7.62 km/s
星下点 -47.34°S, 82.6°W
发射日期 Apr 4, 2025
运行时间 0.7 years
类型 internet

技术详情

分类 Payload
质量 575.00 kg
干质量 530.00 kg
总质量 575.00 kg
长度 0.30 m
直径 4.10 m
跨度 29.00 m
形状 Box + pan
制造商 SPXS
平台类型 Starlink V2MO
阶段状态 In Orbit
所有者/国家 SPXS/US

大型星座

Loading constellations...